Weather History for KJGG - February, 2013

Change the Weather History Date:

Tuesday, February 26, 2013

  Actual Average Record
Temperature  
Mean Temperature 44 °F -  
Max Temperature 57 °F 51 °F 76 °F (1977)
Min Temperature 30 °F 30 °F 13 °F (1990)
Degree Days  
Heating Degree Days 22    
Moisture  
Dew Point 42 °F    
Average Humidity 91    
Maximum Humidity 100    
Minimum Humidity 81    
Precipitation  
Precipitation 1.50 in - - ()
Sea Level Pressure  
Sea Level Pressure 29.94 in    
Wind  
Wind Speed 5 mph (East)    
Max Wind Speed 21 mph    
Max Gust Speed 31 mph    
Visibility 7 miles    
Events      
Averages and records for this station are not official NWS values.
T = Trace of Precipitation, MM = Missing Value Source: NWS Daily Summary

Daily Weather History Graph

Daily Weather History Graph

Search for Another Location

Airport or City:

Trip Planner

Search our weather history database for the weather conditions in past years. The results will help you decide how hot, cold, wet, or windy it might be!

Date:

Astronomy

Feb. 26, 2013 Rise Set
Actual Time 6:41 AM EST 5:58 PM EST
Civil Twilight 6:15 AM EST 6:24 PM EST
Nautical Twilight 5:45 AM EST 6:54 PM EST
Astronomical Twilight 5:15 AM EST 7:24 PM EST
Moon 7:09 PM EST (2/26) 6:45 AM EST (2/26)
Length of Visible Light 12h 08m
Length of Day
11h 16m
Full, 99% of the Moon is Illuminated
Feb 26
Full
Mar 4
Last Quarter
Mar 11
New
Mar 19
First Quarter
Mar 27
Full

Hourly Weather History & Observations

Time (EST) Temp. Windchill Dew Point Humidity Pressure Visibility Wind Dir Wind Speed Gust Speed Precip Events Conditions
12:15 AM 30.2 °F - 28.4 °F 93% 30.20 in 10.0 mi Calm Calm - N/A   Clear
12:35 AM 30.2 °F - 28.4 °F 93% 30.19 in 10.0 mi Calm Calm - N/A   Clear
12:55 AM 30.2 °F - 28.4 °F 93% 30.21 in 10.0 mi Calm Calm - N/A   Clear
1:15 AM 30.2 °F - 28.4 °F 93% 30.22 in 10.0 mi Calm Calm - N/A   Clear
1:35 AM 30.2 °F - 28.4 °F 93% 30.21 in 10.0 mi Calm Calm - N/A   Clear
1:55 AM 30.2 °F - 28.4 °F 93% 30.21 in 7.0 mi Calm Calm - N/A   Clear
2:15 AM 30.2 °F - 28.4 °F 93% 30.20 in 7.0 mi Calm Calm - N/A   Clear
2:35 AM 30.2 °F 26.7 °F 28.4 °F 93% 30.19 in 7.0 mi NE 3.5 mph - N/A   Clear
2:55 AM 32.0 °F - 30.2 °F 93% 30.19 in 7.0 mi Calm Calm - N/A   Clear
3:15 AM 32.0 °F 28.7 °F 30.2 °F 93% 30.17 in 10.0 mi NE 3.5 mph - N/A   Clear
3:35 AM 32.0 °F 28.7 °F 30.2 °F 93% 30.16 in 10.0 mi NE 3.5 mph - N/A   Clear
3:55 AM 33.8 °F 30.8 °F 30.2 °F 87% 30.17 in 10.0 mi NE 3.5 mph - N/A   Clear
4:15 AM 33.8 °F - 30.2 °F 87% 30.17 in 10.0 mi Calm Calm - N/A   Clear
4:35 AM 33.8 °F 30.8 °F 30.2 °F 87% 30.17 in 10.0 mi ENE 3.5 mph - N/A   Clear
4:55 AM 33.8 °F 29.6 °F 30.2 °F 87% 30.15 in 10.0 mi ENE 4.6 mph - N/A   Clear
5:15 AM 33.8 °F 30.8 °F 32.0 °F 93% 30.15 in 10.0 mi ENE 3.5 mph - N/A   Clear
5:35 AM 33.8 °F 30.8 °F 32.0 °F 93% 30.16 in 10.0 mi ENE 3.5 mph - N/A   Clear
5:55 AM 35.6 °F 32.8 °F 32.0 °F 87% 30.16 in 10.0 mi ENE 3.5 mph - N/A   Clear
6:15 AM 35.6 °F 32.8 °F 32.0 °F 87% 30.15 in 10.0 mi ENE 3.5 mph - N/A   Clear
6:35 AM 35.6 °F 31.7 °F 32.0 °F 87% 30.15 in 10.0 mi ENE 4.6 mph - N/A   Clear
7:15 AM 37.4 °F 32.8 °F 33.8 °F 87% 30.14 in 10.0 mi ENE 5.8 mph - N/A   Clear
7:35 AM 37.4 °F 34.9 °F 33.8 °F 87% 30.13 in 10.0 mi NE 3.5 mph - N/A   Mostly Cloudy
7:55 AM 39.2 °F 37.0 °F 33.8 °F 81% 30.13 in 10.0 mi ENE 3.5 mph - N/A   Overcast
8:15 AM 39.2 °F - 35.6 °F 87% 30.14 in 10.0 mi Calm Calm - N/A   Overcast
8:35 AM 41.0 °F 37.1 °F 35.6 °F 81% 30.15 in 10.0 mi East 5.8 mph - N/A   Mostly Cloudy
8:55 AM 41.0 °F 38.0 °F 37.4 °F 87% 30.14 in 10.0 mi East 4.6 mph - N/A   Mostly Cloudy
9:15 AM 42.8 °F - 37.4 °F 81% 30.14 in 10.0 mi Calm Calm - N/A   Overcast
9:35 AM 42.8 °F 40.1 °F 37.4 °F 81% 30.14 in 10.0 mi ENE 4.6 mph - N/A   Overcast
9:55 AM 44.6 °F 42.2 °F 39.2 °F 81% 30.12 in 10.0 mi ENE 4.6 mph - N/A   Overcast
10:15 AM 44.6 °F 39.7 °F 41.0 °F 87% 30.11 in 10.0 mi East 9.2 mph - N/A   Mostly Cloudy
10:35 AM 46.4 °F 42.4 °F 41.0 °F 81% 30.08 in 10.0 mi ENE 8.1 mph 18.4 mph N/A   Overcast
10:55 AM 46.4 °F 43.5 °F 41.0 °F 81% 30.07 in 10.0 mi ENE 5.8 mph 18.4 mph N/A   Overcast
11:15 AM 48.2 °F - 42.8 °F 82% 30.06 in 10.0 mi ENE 5.8 mph - N/A   Overcast
11:35 AM 48.2 °F - 42.8 °F 82% 30.05 in 10.0 mi ENE 4.6 mph - N/A   Overcast
11:55 AM 48.2 °F - 42.8 °F 82% 30.03 in 10.0 mi East 12.7 mph 20.7 mph N/A   Mostly Cloudy
12:15 PM 48.2 °F - 44.6 °F 87% 30.01 in 7.0 mi ENE 11.5 mph 18.4 mph N/A   Overcast
12:35 PM 48.2 °F - 44.6 °F 87% 29.99 in 5.0 mi East 10.4 mph 18.4 mph 0.01 in   Overcast
12:55 PM 48.2 °F - 44.6 °F 87% 29.97 in 5.0 mi ENE 12.7 mph 16.1 mph 0.01 in   Overcast
1:15 PM 48.2 °F - 46.4 °F 93% 29.95 in 4.0 mi ENE 10.4 mph 17.3 mph 0.01 in   Overcast
1:35 PM 48.2 °F - 46.4 °F 93% 29.95 in 3.0 mi East 10.4 mph 16.1 mph 0.03 in   Overcast
1:55 PM 48.2 °F - 46.4 °F 93% 29.94 in 1.8 mi East 10.4 mph 18.4 mph 0.06 in   Overcast
2:15 PM 50.0 °F - 48.2 °F 94% 29.95 in 1.8 mi East 10.4 mph 18.4 mph 0.04 in   Overcast
2:35 PM 50.0 °F - 48.2 °F 94% 29.93 in 1.2 mi East 12.7 mph 20.7 mph 0.08 in   Overcast
2:55 PM 50.0 °F - 48.2 °F 94% 29.90 in 1.2 mi East 9.2 mph 16.1 mph 0.15 in   Overcast
3:15 PM 50.0 °F - 48.2 °F 94% 29.88 in 2.0 mi East 11.5 mph 20.7 mph 0.06 in   Overcast
3:35 PM 50.0 °F - 48.2 °F 94% 29.84 in 3.0 mi East 15.0 mph 24.2 mph 0.09 in   Overcast
3:55 PM 50.0 °F - 48.2 °F 94% 29.83 in 2.5 mi East 12.7 mph 21.9 mph 0.10 in   Overcast
4:15 PM 51.8 °F - 48.2 °F 88% 29.81 in 4.0 mi East 8.1 mph 19.6 mph 0.01 in   Overcast
4:35 PM 51.8 °F - 48.2 °F 88% 29.78 in 5.0 mi East 12.7 mph 20.7 mph 0.01 in   Overcast
4:55 PM 51.8 °F - 50.0 °F 94% 29.75 in 7.0 mi East 17.3 mph 24.2 mph 0.02 in   Overcast
5:15 PM 51.8 °F - 51.8 °F 100% 29.72 in 2.0 mi East 15.0 mph 31.1 mph 0.02 in   Overcast
5:35 PM 51.8 °F - 50.0 °F 94% 29.71 in 1.2 mi East 10.4 mph 20.7 mph 0.14 in   Overcast
5:55 PM 51.8 °F - 51.8 °F 100% 29.69 in 0.8 mi East 20.7 mph 28.8 mph 0.47 in   Overcast
6:15 PM 51.8 °F - 51.8 °F 100% 29.70 in 1.2 mi ESE 20.7 mph 31.1 mph 0.12 in   Overcast
6:35 PM 51.8 °F - 51.8 °F 100% 29.68 in 2.0 mi East 15.0 mph 28.8 mph 0.19 in   Overcast
6:55 PM 51.8 °F - 51.8 °F 100% 29.67 in 1.5 mi East 12.7 mph 21.9 mph 0.30 in   Overcast
7:15 PM 53.6 °F - 53.6 °F 100% 29.64 in 4.0 mi East 12.7 mph 24.2 mph 0.10 in   Overcast
7:35 PM 55.4 °F - 53.6 °F 94% 29.64 in 4.0 mi ESE 10.4 mph 19.6 mph 0.18 in   Overcast
7:55 PM 55.4 °F - 53.6 °F 94% 29.63 in 5.0 mi SE 11.5 mph 19.6 mph 0.29 in   Overcast
8:15 PM 55.4 °F - 53.6 °F 94% 29.63 in 2.5 mi ESE 9.2 mph - 0.09 in   Overcast
8:35 PM 55.4 °F - 53.6 °F 94% 29.62 in 10.0 mi Calm Calm - 0.10 in   Overcast
8:55 PM 55.4 °F - 55.4 °F 100% 29.62 in 10.0 mi SSE 5.8 mph - 0.10 in   Overcast
9:15 PM 55.4 °F - 53.6 °F 94% 29.61 in 7.0 mi SE 4.6 mph - N/A   Overcast
9:35 PM 57.2 °F - 55.4 °F 94% 29.59 in 7.0 mi ESE 4.6 mph - N/A   Overcast
9:55 PM 57.2 °F - 55.4 °F 94% 29.59 in 7.0 mi SSE 5.8 mph - N/A   Overcast
10:15 PM 57.2 °F - 57.2 °F 100% 29.58 in 7.0 mi SE 4.6 mph - N/A   Overcast
10:35 PM 57.2 °F - 55.4 °F 94% 29.57 in 2.5 mi Calm Calm - N/A   Overcast
10:55 PM 57.2 °F - 55.4 °F 94% 29.58 in 0.8 mi Calm Calm - N/A   Overcast
11:15 PM 57.2 °F - 55.4 °F 94% 29.57 in 0.5 mi Calm Calm - N/A   Overcast
11:35 PM 55.4 °F - 53.6 °F 94% 29.57 in 0.8 mi West 3.5 mph - N/A   Overcast
11:55 PM 57.2 °F - 57.2 °F 100% 29.58 in 1.2 mi West 6.9 mph - N/A   Overcast